Theta_e
333 338 343 343 343 345 346 346 345 347 345 342 342 343 344 345 346 347 350 352 352 350 349 345 346 347 346 344 346 345 341 342 339 335 334 338 339 339 337 338 338 337 337
334 341 344 348 344 343 346 346 347 346 345 343 345 345 346 344 343 344 346 349 348 349 347 346 344 343 341 341 340 342 339 338 337 331 331 326 332 336 333 336 334 333 334
334 339 343 345 348 344 342 344 347 346 347 350 348 344 341 339 338 338 338 337 341 339 339 337 336 335 333 331 333 334 335 328 334 334 328 322 320 323 332 331 329 332 332
335 339 342 344 346 346 345 345 347 348 349 351 346 344 343 340 338 334 335 335 336 336 335 332 331 331 329 330 328 328 328 328 324 332 330 330 330 321 316 323 326 328 329
335 337 341 343 345 346 346 347 349 350 350 350 348 346 346 341 338 333 328 330 329 328 327 326 327 328 324 327 328 326 326 326 325 324 325 327 327 327 319 314 318 322 325
336 339 342 341 343 345 345 347 347 346 349 350 348 346 341 336 333 330 324 322 322 324 325 325 325 325 324 323 322 324 326 326 325 325 323 321 319 317 317 315 316 317 320
335 337 339 339 340 341 343 346 343 341 344 345 345 344 339 336 333 326 322 322 320 320 322 324 324 323 323 320 321 322 324 324 322 323 321 321 320 320 316 314 312 313 317
332 336 339 340 338 336 336 339 338 335 340 340 340 338 336 332 328 324 320 320 319 319 322 321 321 319 318 318 319 317 319 321 319 318 317 316 316 315 314 313 310 310 311
328 334 338 341 335 331 331 336 337 334 338 338 335 331 326 324 322 323 325 322 321 318 319 319 318 317 317 317 318 317 317 317 316 315 314 313 312 312 311 312 311 310 306
325 332 336 337 328 328 328 331 331 334 336 335 331 324 324 325 324 323 322 321 319 318 317 317 317 315 316 315 316 316 317 316 314 313 313 312 311 310 310 309 309 309 308
323 330 333 325 326 326 326 330 330 330 332 333 328 325 323 322 322 322 321 319 318 318 316 316 315 315 314 314 316 316 314 313 314 313 310 310 310 307 307 308 308 308 308
329 330 324 326 327 330 330 330 329 330 331 329 324 321 321 320 321 319 319 318 317 317 316 315 314 313 313 315 313 311 312 311 310 309 309 308 307 308 308 308 309 309 311
324 322 324 326 328 330 329 330 328 327 328 328 324 321 321 319 318 316 316 316 316 316 315 315 313 312 312 312 312 312 311 310 310 308 307 307 307 306 307 309 309 309 310
321 323 324 324 327 329 330 327 326 325 326 326 323 320 319 318 316 317 316 315 316 315 315 314 312 311 311 310 310 310 309 308 307 307 307 306 305 306 308 308 309 310 309
320 320 322 321 324 326 325 324 323 323 323 323 322 320 318 319 317 315 315 315 315 314 313 311 310 311 311 309 310 309 308 307 306 306 306 306 305 304 303 304 306 307 306
311 320 322 322 322 323 323 322 322 322 323 321 321 320 318 317 315 313 313 313 312 311 310 309 309 309 308 303 302 304 305 305 304 304 304 306 304 303 301 301 302 303 305
309 311 316 321 322 324 324 322 321 322 322 322 320 318 317 316 314 313 312 310 308 308 308 308 307 305 306 301 301 301 304 304 304 304 304 303 303 302 304 303 302 304 303
308 311 315 322 322 325 325 324 322 321 319 317 313 312 309 309 309 304 301 301 301 301 300 301 300 301 302 298 298 299 303 303 303 304 304 304 303 303 302 302 301 302 304
305 307 315 319 318 318 316 311 310 308 306 303 303 303 302 300 300 298 297 297 298 297 297 300 299 300 300 298 296 298 303 302 302 302 304 303 302 300 298 301 300 299 301
303 303 305 306 307 308 308 305 305 304 302 302 301 302 300 300 298 297 298 297 297 297 298 298 299 299 298 298 296 297 299 300 300 301 302 300 300 297 297 300 299 298 298
298 299 299 298 300 302 302 299 300 299 301 300 300 299 298 297 297 297 297 296 295 297 297 296 297 298 299 299 296 295 299 299 298 298 299 301 297 296 295 295 300 299 300
295 296 294 295 297 299 298 295 294 297 297 296 296 295 296 296 297 296 297 298 298 297 296 296 297 298 300 298 297 295 295 297 298 297 298 300 296 295 295 296 295 295 296
292 295 293 294 295 296 295 293 294 295 295 293 294 294 294 294 295 296 296 297 296 295 295 295 295 296 298 298 296 295 293 295 297 298 297 295 294 294 295 295 295 295 297
290 291 292 291 291 293 294 294 294 295 294 293 293 295 293 294 297 295 295 295 294 293 292 292 291 292 293 293 293 293 293 294 294 294 294 294 293 294 294 296 297 298 298
291 292 292 292 292 293 294 295 295 295 293 294 294 294 293 294 294 293 293 292 293 291 290 290 290 290 289 291 290 290 290 290 290 290 291 291 291 291 293 295 295 296 297
291 291 292 292 292 292 293 293 294 294 292 292 293 294 294 293 294 294 295 292 291 291 290 290 290 291 290 290 290 289 289 288 288 288 287 286 288 289 290 291 293 295 295
Wind_Speed
21 14 15 15 15 16 16 17 16 15 12 10 10 6 5 4 3 3 5 5 6 8 8 5 5 4 3 3 1 2 3 1 4 5 4 3 1 2 6 5 6 8 9
19 15 15 13 14 15 16 17 17 17 14 10 9 5 6 3 4 4 5 6 8 9 8 8 5 4 4 4 3 1 0 2 4 4 3 3 0 1 6 5 6 10 9
23 18 16 14 11 14 17 16 17 17 14 13 9 8 8 5 4 5 5 6 7 8 8 7 6 6 5 4 4 5 4 3 3 6 4 3 3 7 2 5 7 10 8
18 17 13 13 12 13 13 15 16 16 15 17 14 16 11 10 5 7 6 7 8 8 9 9 8 7 6 6 5 6 5 3 4 1 4 4 4 4 6 5 6 9 8
16 15 13 10 8 9 11 12 14 15 15 15 14 12 10 7 9 8 11 9 9 9 9 9 9 8 5 6 7 6 5 4 3 3 2 2 1 2 6 8 9 8 8
15 14 12 10 10 10 10 11 13 12 14 14 15 14 15 14 12 11 10 9 9 8 8 9 8 7 7 6 5 5 6 5 4 3 4 4 3 5 4 6 10 10 8
14 15 17 16 14 13 11 11 13 12 12 12 13 13 14 15 15 15 10 11 9 8 7 8 7 6 7 5 4 5 6 5 5 4 4 3 2 1 2 4 7 8 10
16 18 21 17 14 13 11 11 11 9 12 15 14 12 14 10 10 10 9 8 9 8 8 7 8 7 6 5 4 4 4 4 4 5 4 3 2 2 3 3 5 9 8
16 20 15 14 14 13 12 13 13 11 13 15 14 14 10 12 10 12 10 9 9 8 9 8 8 7 6 5 4 4 4 4 3 3 4 3 4 4 4 3 4 4 6
12 12 12 13 13 14 11 12 13 15 15 15 14 13 13 12 14 13 13 12 9 9 10 9 9 6 6 4 3 4 4 3 3 3 4 5 5 7 6 6 6 6 7
12 10 10 12 13 13 12 15 16 18 16 15 15 15 14 14 13 10 11 11 14 10 9 9 9 7 6 4 4 4 4 3 2 3 5 6 7 7 7 6 6 7 7
11 5 9 12 14 17 18 17 17 17 17 17 17 18 16 16 14 11 9 9 9 9 9 9 8 7 5 5 5 4 4 2 1 3 6 7 7 9 8 7 7 7 8
9 5 10 13 14 18 18 18 16 16 17 17 17 17 18 16 13 12 10 10 10 10 8 7 6 6 5 5 2 0 1 1 2 4 6 6 8 8 8 8 9 8 7
7 10 10 10 12 14 14 14 14 14 15 17 18 16 13 15 11 13 12 9 8 8 7 5 5 4 5 3 1 2 2 4 4 5 6 7 8 8 9 8 8 8 9
12 9 11 10 13 13 12 11 12 13 13 14 15 14 13 11 11 9 10 10 9 7 6 5 4 3 2 1 2 2 3 5 7 7 7 6 7 6 7 6 7 8 8
18 12 11 11 11 13 12 12 12 11 12 11 11 11 12 12 12 11 10 9 9 8 6 4 2 3 3 4 2 4 5 6 7 8 7 6 7 4 5 6 8 8 9
18 17 13 9 9 12 11 11 10 9 10 11 10 9 12 13 12 10 9 9 8 7 6 3 3 5 5 3 5 5 7 7 7 7 6 7 5 5 7 7 8 5 2
16 17 11 8 9 10 11 10 9 9 9 11 10 11 11 11 12 13 12 10 7 7 5 3 2 6 4 5 6 9 10 8 9 9 9 9 9 7 8 9 10 11 9
9 8 6 2 7 10 12 14 12 14 14 13 13 13 14 15 14 11 9 8 5 3 1 1 4 8 6 4 8 8 8 9 8 10 9 9 10 6 7 11 12 11 11
7 6 10 13 13 11 13 19 14 14 15 13 14 12 12 12 10 11 6 5 5 1 2 3 5 6 6 6 8 8 7 9 8 10 10 8 9 7 7 9 11 12 10
10 13 15 20 16 14 15 19 17 16 12 14 14 12 11 11 11 7 7 5 3 0 4 5 4 7 7 6 7 9 9 9 8 10 9 8 4 10 8 7 10 11 11
16 17 17 19 18 17 17 19 18 13 13 13 13 11 10 8 6 8 6 4 1 3 3 6 4 4 8 3 6 10 11 11 11 10 10 10 7 9 8 8 9 10 11
17 14 17 19 18 17 17 18 14 13 10 14 12 9 9 9 8 7 4 2 2 2 5 6 6 6 6 7 4 6 11 11 10 10 12 14 13 13 11 14 14 13 11
14 12 16 16 19 18 18 14 13 9 10 13 11 8 7 6 7 4 5 5 4 5 5 6 7 7 6 6 4 7 9 11 10 12 10 14 16 17 17 16 13 11 10
13 11 14 17 16 17 15 16 12 12 11 11 10 6 3 6 6 5 2 3 2 2 4 5 6 8 7 6 8 9 9 9 10 14 11 10 9 9 10 10 9 10 8
12 12 12 15 17 15 15 14 12 11 11 10 9 5 6 6 5 3 1 7 4 4 5 6 6 7 9 10 12 13 12 12 13 9 9 9 9 9 9 9 9 7 10
Wind_Direction
221 218 211 206 206 204 197 198 191 190 181 180 172 176 178 169 140 130 143 131 136 146 137 141 146 156 141 140 167 294 293 287 345 299 306 309 22 40 356 4 7 359 347
220 215 212 206 202 201 198 193 192 185 186 184 179 159 165 153 134 131 125 135 135 129 137 141 140 135 128 128 140 199 246 30 23 343 304 345 86 334 352 356 354 358 340
236 221 205 206 207 210 203 198 192 184 181 179 152 133 119 120 131 121 101 100 113 107 116 118 117 105 98 89 59 55 54 42 68 36 346 322 333 330 304 335 350 346 340
231 240 222 208 205 210 206 199 192 184 179 171 173 170 173 164 156 139 130 118 115 114 115 112 110 111 108 101 85 65 57 24 48 90 40 17 343 331 315 321 339 337 336
218 225 223 218 203 194 193 187 181 179 174 176 174 170 166 147 137 136 134 125 112 116 117 116 113 109 108 96 84 75 63 69 60 50 23 16 353 1 306 308 328 324 339
217 213 204 185 191 176 170 166 161 168 173 171 168 168 159 151 146 149 144 142 131 127 121 109 104 103 98 91 92 94 80 79 77 65 52 39 4 355 340 316 327 321 335
223 212 202 193 183 175 161 154 158 156 164 163 166 165 159 158 154 156 155 146 136 133 126 120 120 109 100 90 87 86 81 61 59 46 67 62 59 20 340 302 315 296 316
228 225 216 199 177 166 159 157 144 132 153 152 148 151 149 150 151 153 148 148 135 135 131 115 108 102 98 94 90 87 79 87 82 75 44 33 13 0 348 318 317 313 306
223 224 220 197 173 155 150 153 152 152 155 147 136 139 144 146 147 148 143 137 129 130 126 125 121 113 110 109 120 105 119 104 82 78 56 353 346 330 315 292 277 277 308
274 245 208 182 162 142 144 153 156 162 160 147 146 148 153 152 149 151 146 141 134 138 135 132 119 120 121 120 123 138 110 88 53 6 8 355 349 317 318 313 297 275 269
287 229 196 158 150 147 161 164 166 160 159 153 149 149 152 153 151 154 151 145 142 147 145 138 138 144 132 121 125 118 126 113 88 356 345 341 338 333 319 319 304 297 284
311 239 171 163 167 171 172 174 169 166 162 157 158 157 152 156 147 145 154 155 137 151 151 150 143 132 133 134 141 142 140 174 272 333 322 329 334 327 320 317 311 304 298
307 185 194 194 193 184 177 172 174 172 166 163 160 161 164 154 148 148 155 149 164 152 158 151 141 136 134 125 125 182 185 254 280 300 301 317 320 317 324 321 317 315 310
279 248 224 219 206 191 179 176 178 174 172 167 168 168 159 157 158 146 152 157 158 150 153 148 126 122 115 96 11 299 307 298 301 304 307 316 315 312 327 322 319 319 310
286 246 245 215 211 192 185 183 182 175 173 173 175 168 157 141 141 129 144 146 140 145 142 133 118 148 183 220 250 233 270 295 297 291 285 283 312 322 343 333 335 324 315
319 289 247 227 210 201 195 191 183 177 178 180 180 160 139 142 139 136 146 139 133 133 131 123 166 240 284 65 198 294 297 289 276 278 276 266 256 283 318 339 339 339 339
306 301 296 225 203 204 195 191 179 166 183 181 168 154 146 139 129 127 131 120 113 115 113 96 321 323 315 327 243 280 281 288 285 281 279 269 270 267 306 311 300 284 302
297 298 275 231 195 182 185 156 154 141 137 121 110 109 102 108 107 95 86 68 58 51 40 43 322 289 281 277 275 283 271 278 284 278 271 272 279 277 280 296 307 306 295
300 323 331 132 128 126 123 108 100 100 99 91 91 94 100 102 96 88 101 108 99 87 218 238 266 273 294 298 287 275 273 280 281 283 271 288 291 295 243 290 305 302 301
356 36 69 71 73 80 100 99 97 96 93 91 90 86 82 84 89 112 105 121 106 170 256 266 251 263 290 292 285 291 291 279 291 288 277 245 266 259 248 279 287 288 296
44 62 67 73 57 66 82 83 83 74 77 79 81 78 77 81 94 85 94 71 63 308 284 281 282 282 279 292 291 290 299 294 297 287 288 284 239 252 232 234 273 289 311
44 57 63 65 65 62 62 69 63 66 73 77 73 69 73 71 56 75 71 76 40 303 301 286 286 283 277 237 302 328 311 316 293 292 292 290 340 273 263 264 277 265 271
34 33 60 69 66 63 64 68 57 54 56 69 63 63 67 62 67 26 43 50 65 0 298 316 308 300 318 321 322 350 356 326 318 307 320 313 302 284 276 263 259 262 265
30 26 51 59 69 64 60 66 67 67 59 60 54 60 44 65 47 43 10 344 11 350 341 312 314 314 307 315 350 320 301 289 299 304 302 301 293 278 273 279 267 257 259
27 38 51 58 58 65 69 68 54 48 50 66 64 46 31 55 61 55 0 343 4 347 308 311 309 303 308 325 326 309 310 314 313 312 299 297 298 297 282 270 266 269 261
39 52 59 67 66 65 66 60 48 47 50 42 49 15 26 31 20 354 343 181 237 280 290 295 307 306 306 315 309 303 305 311 308 297 296 293 294 287 274 277 278 263 264